Total_Precipitation_Accumulation
2.33 2.54 2.93 3.18 3.38 3.54 3.80 4.08 4.50 4.94 5.11 4.97 4.93 4.98 4.98 4.87 4.55 4.43 4.61 4.67 4.43 4.46 4.99 4.89 5.44 5.34 5.52 5.68 5.55 5.78 5.61 5.36 5.43 5.42 4.80 4.06 3.55 3.42 3.17 3.14 3.38 3.32 3.34
2.29 2.57 2.96 3.13 3.10 3.29 3.58 3.98 4.49 4.87 4.83 5.01 5.27 5.30 5.26 4.77 4.58 4.54 4.66 4.47 4.21 4.16 4.33 5.04 5.08 5.16 5.42 5.46 5.43 5.50 5.22 4.89 5.28 5.64 5.50 4.66 4.19 3.65 2.93 3.13 3.20 3.32 3.61
1.97 2.16 2.40 2.62 2.82 3.24 3.69 4.07 4.44 4.60 4.68 4.96 5.12 4.89 4.83 4.49 4.52 4.64 4.58 4.34 4.18 4.12 4.36 4.77 4.88 5.01 4.90 5.16 5.39 5.20 5.17 5.07 5.15 5.38 5.73 5.21 4.49 3.85 3.34 3.12 3.15 3.47 3.76
1.83 1.97 2.06 2.40 2.78 3.22 3.84 4.30 4.36 4.46 4.38 4.57 4.76 4.64 4.36 4.24 4.24 4.31 4.11 4.07 3.99 3.90 4.03 4.33 4.62 4.81 4.74 4.96 4.73 4.84 5.06 5.21 5.04 5.18 5.06 5.01 4.73 4.50 3.91 3.39 3.21 3.42 3.50
1.75 2.00 1.99 2.21 2.50 2.93 3.36 3.81 4.21 4.32 4.19 4.21 4.38 4.56 4.37 4.15 3.99 3.90 3.87 3.87 3.90 3.74 3.71 3.95 4.23 4.39 4.38 4.46 4.69 5.10 4.99 4.95 4.86 5.01 5.13 5.30 5.03 4.60 4.34 3.90 3.65 3.42 3.02
1.78 1.92 2.21 2.30 2.46 2.74 3.14 3.44 3.70 3.73 3.75 3.78 3.87 4.02 4.12 4.12 3.95 3.78 3.81 3.78 3.71 3.64 3.61 3.72 4.06 4.16 4.14 4.15 4.37 4.57 4.61 4.66 4.77 4.76 4.72 5.00 5.01 4.79 4.79 4.26 3.86 3.55 2.97
1.95 1.95 2.14 2.29 2.40 2.52 2.73 2.93 3.03 3.12 3.15 3.24 3.28 3.31 3.47 3.57 3.48 3.45 3.54 3.60 3.53 3.47 3.52 3.49 3.67 3.62 3.66 3.84 4.21 4.22 4.11 4.20 4.34 4.29 4.40 4.40 4.26 4.41 4.55 4.42 3.85 3.44 2.87
1.75 1.83 1.95 1.92 1.96 2.03 2.18 2.33 2.43 2.49 2.51 2.63 2.78 2.82 3.05 3.15 3.22 3.39 3.25 3.33 3.29 3.32 3.26 3.13 3.10 3.10 3.24 3.35 3.87 3.92 3.82 3.96 3.96 3.84 4.24 4.05 3.80 4.06 4.06 4.11 4.27 3.89 3.44
1.46 1.48 1.54 1.63 1.76 1.79 1.86 1.95 2.05 2.12 2.14 2.26 2.43 2.48 2.58 2.79 2.99 3.14 2.97 2.77 2.88 2.84 3.06 2.98 2.83 2.80 2.96 3.16 3.37 3.46 3.50 3.69 3.63 3.71 3.83 3.52 3.42 3.55 3.63 3.87 4.22 4.32 3.96
1.30 1.33 1.30 1.37 1.44 1.52 1.65 1.78 1.89 2.14 2.22 2.23 2.35 2.27 2.44 2.58 2.76 2.81 2.60 2.58 2.73 2.76 2.79 2.79 2.69 2.66 2.68 2.78 3.06 3.05 3.20 3.29 3.31 3.49 3.51 3.42 3.28 3.41 3.38 3.47 3.78 4.06 4.10
1.10 1.18 1.10 1.13 1.22 1.33 1.51 1.70 1.97 2.19 2.21 2.09 2.21 2.30 2.34 2.48 2.53 2.52 2.41 2.52 2.64 2.83 2.80 2.79 2.79 2.67 2.58 2.69 2.84 2.68 2.90 2.95 2.99 2.94 2.97 3.02 3.28 3.42 3.32 3.40 3.46 3.75 4.08
0.93 1.02 1.07 1.02 1.06 1.14 1.29 1.53 1.77 1.97 2.01 1.96 2.00 2.19 2.34 2.40 2.40 2.33 2.35 2.37 2.38 2.44 2.48 2.44 2.45 2.46 2.64 2.81 2.72 2.66 2.75 2.82 2.71 2.77 2.95 2.78 3.05 3.25 3.15 3.27 3.28 3.48 3.88
1.02 0.97 1.09 1.13 1.10 1.13 1.27 1.47 1.54 1.78 2.03 2.09 2.12 2.29 2.28 2.19 2.24 2.48 2.58 2.47 2.43 2.44 2.41 2.41 2.38 2.37 2.61 2.78 2.68 2.71 2.79 2.80 2.66 2.77 2.79 2.64 2.84 2.91 3.01 3.09 3.13 3.34 3.62
1.05 0.98 1.03 1.09 1.02 1.10 1.26 1.44 1.53 1.71 1.92 2.17 2.31 2.43 2.30 2.28 2.36 2.51 2.62 2.58 2.49 2.50 2.60 2.64 2.54 2.54 2.44 2.42 2.58 2.74 2.71 2.68 2.58 2.61 2.54 2.42 2.45 2.56 2.84 2.91 3.06 3.31 3.56
0.99 1.02 0.99 0.95 0.92 0.95 1.07 1.30 1.56 1.77 1.92 2.18 2.33 2.41 2.43 2.45 2.52 2.53 2.59 2.59 2.50 2.47 2.73 2.75 2.70 2.67 2.46 2.26 2.41 2.55 2.44 2.45 2.41 2.39 2.25 2.08 2.16 2.33 2.45 2.33 2.74 3.18 3.33
1.01 0.94 0.95 0.98 1.00 0.94 0.97 1.07 1.32 1.61 1.82 2.03 2.17 2.24 2.37 2.53 2.57 2.54 2.58 2.57 2.61 2.66 2.71 2.64 2.61 2.49 2.13 2.21 2.17 2.12 2.17 2.23 2.25 2.29 2.27 2.15 2.05 2.02 2.07 2.04 2.25 2.65 2.84
1.25 1.22 1.12 1.19 1.12 1.09 1.11 1.16 1.26 1.52 1.76 1.93 2.04 2.16 2.31 2.44 2.49 2.43 2.54 2.63 2.59 2.55 2.47 2.44 2.44 2.36 2.27 2.11 1.83 1.76 1.91 2.11 2.21 2.26 2.31 2.03 1.86 1.96 1.84 1.94 2.03 2.07 2.16
1.05 1.20 1.28 1.33 1.31 1.25 1.33 1.35 1.41 1.55 1.73 1.94 2.07 2.17 2.33 2.37 2.39 2.39 2.33 2.34 2.37 2.36 2.34 2.22 2.24 2.35 2.25 2.18 1.88 1.75 1.72 1.92 1.95 1.95 2.01 2.06 2.04 1.96 2.04 2.04 1.99 1.84 1.86
1.06 1.11 1.16 1.26 1.44 1.48 1.50 1.54 1.66 1.79 1.82 1.95 2.13 2.26 2.32 2.33 2.34 2.34 2.27 2.29 2.32 2.27 2.27 2.25 2.28 2.31 2.24 2.23 2.02 1.96 1.85 1.93 1.88 1.91 1.96 2.06 2.10 2.18 2.12 2.08 2.10 2.04 1.97
1.00 1.09 1.19 1.25 1.41 1.55 1.64 1.68 1.78 1.96 1.96 2.02 2.13 2.21 2.28 2.37 2.31 2.41 2.48 2.48 2.41 2.35 2.39 2.39 2.35 2.22 2.16 2.11 1.93 1.99 1.95 2.13 2.19 2.25 2.21 2.11 1.95 1.98 1.94 1.91 2.01 1.98 1.94
1.08 1.05 1.15 1.41 1.53 1.61 1.75 1.83 1.79 1.85 1.91 2.06 2.17 2.25 2.32 2.40 2.37 2.45 2.53 2.57 2.53 2.56 2.47 2.31 2.30 2.29 2.18 1.98 1.72 1.69 1.67 1.93 2.19 2.20 2.11 1.99 1.83 1.66 1.62 1.59 1.68 1.79 1.80
1.38 1.42 1.49 1.59 1.63 1.68 1.85 1.98 2.03 1.97 2.07 2.16 2.16 2.27 2.41 2.23 2.21 2.48 2.59 2.64 2.67 2.62 2.52 2.39 2.26 2.28 2.23 1.95 1.75 1.69 1.64 1.78 2.03 2.24 2.20 2.07 1.90 1.68 1.58 1.42 1.46 1.58 1.57
1.43 1.48 1.54 1.58 1.65 1.76 1.86 2.09 2.15 2.12 2.13 2.23 2.29 2.34 2.39 2.46 2.52 2.56 2.65 2.62 2.56 2.52 2.49 2.46 2.33 2.31 2.34 2.25 1.94 1.78 1.78 1.87 1.91 2.05 2.25 2.13 1.81 1.57 1.47 1.44 1.36 1.29 1.31
1.30 1.35 1.51 1.57 1.73 1.93 2.07 2.29 2.30 2.24 2.27 2.39 2.52 2.52 2.47 2.52 2.68 2.82 2.79 2.68 2.53 2.58 2.61 2.47 2.41 2.41 2.43 2.29 2.07 1.91 1.81 1.84 1.83 1.84 1.87 1.84 1.70 1.50 1.48 1.52 1.39 1.28 1.36
1.46 1.56 1.73 1.85 1.94 2.04 2.11 2.29 2.44 2.50 2.60 2.65 2.68 2.70 2.70 2.75 2.84 2.80 2.74 2.72 2.65 2.59 2.61 2.55 2.51 2.47 2.37 2.24 2.14 1.99 1.93 1.91 1.88 1.81 1.81 1.76 1.76 1.61 1.55 1.63 1.66 1.66 1.71
1.78 1.77 1.79 1.97 2.07 2.08 2.17 2.33 2.57 2.82 3.03 2.96 2.83 2.85 2.91 2.93 2.87 2.88 2.70 2.55 2.44 2.36 2.23 2.24 2.23 2.09 2.05 2.00 1.91 1.90 1.92 1.90 1.92 1.81 1.81 1.92 1.92 1.87 1.87 1.90 1.90 1.89 1.87